Find Starlink 37521

NORAD ID: 69822 Int'l Des: 2026-154 Owner: SPXS Country: US Constellation: starlink operational
LEOCIRCULAR

当前视图

正在加载3D地球...

About Starlink 37521

Starlink 37521 (NORAD 69822) is a starlink constellation satellite (v2 mini) launched Jul 5, 2026 by SPXS of US. It operates in LEO, CIRCULAR orbit with a mass of 575.00 kg.

即将过境

Passes for default location (London). Set your location on the main map for personalized predictions.

高度历史

Loading altitude history...

两行轨道根数

1 69822U 26154D 26234.94523302 .00032163 00000-0 92853-3 0 9995
2 69822 53.1599 105.2556 0001415 87.1320 272.9845 15.35415616 8852
Epoch: Aug 22, 2026 • Age: 26 hours

当前状态

高度 460.3 km
远地点 / 近地点 N/A
速度 7.64 km/s
星下点 27.86°N, 79.83°W
发射日期 Jul 5, 2026
运行时间 0.1 years
类型 internet

技术详情

分类 Payload
质量 575.00 kg
干质量 530.00 kg
总质量 575.00 kg
长度 0.30 m
直径 4.10 m
跨度 29.00 m
形状 Box + pan
制造商 SPXS
平台类型 Starlink V2MO
阶段状态 In Orbit
所有者/国家 SPXS/US

Most Searched